Regional Weather Roundup
Issued by NWS

Home | Current Version | Previous Version | Graphics & Text | Print | Product List | Glossary On
Versions: 1 2 3 4 5 6 7 8 9 10 11 12 13 14 15 16 17 18 19 20 21 22 23 24 25 26 27 28 29 30 31 32 33 34 35 36 37 38 39 40 41 42 43 44 45 46 47 48 49 50
000
ASUS43 KIND 251559
RWRIN

WEATHER ROUNDUP FOR INDIANA
NATIONAL WEATHER SERVICE INDIANAPOLIS IN
1200 PM EDT TUE APR 25 2017

NOTE: "FAIR" INDICATES FEW OR NO CLOUDS BELOW 12,000 FEET WITH NO
SIGNIFICANT WEATHER AND/OR OBSTRUCTIONS TO VISIBILITY.

* - STATION DOES NOT REPORT WEATHER SUCH AS PRECIPITATION OR FOG.

+ - STATION NOT QUALITY CONTROLLED BY THE NATIONAL WEATHER SERVICE.
    USE DATA WITH CAUTION...ESPECIALLY DEWPOINT AND RELATIVE
    HUMIDITY OBSERVATIONS.

INZ001>003-010>013-019-020-251700-
NORTHWEST INDIANA

CITY           SKY/WX    TMP DP  RH WIND       PRES   REMARKS
GARY /AIRPORT/ MOSUNNY   70  48  46 SE8       29.72S
KNOX *+        SUNNY     68  30  24 S13       29.74S
MONTICELLO +   SUNNY     69  53  58 S7        29.74S

$$

LMZ046-743>745-251700-
SOUTHERN LAKE MICHIGAN

STATION/POSITION TIME  TEMP    WIND        PRES    WAVE
                       AIR SEA DIR/SP/G            HT
                 (UTC) (F)     (DEG/KT/KT) (MB)    (FT)
BURNS HARBOR     1540   68     170/  9/ 18 1007.1S
MICHIGAN CITY    1530   65     160/ 11/ 13   N/A

$$

INZ004-005-014>016-021>024-251700-
NORTH CENTRAL INDIANA

CITY           SKY/WX    TMP DP  RH WIND       PRES   REMARKS
ELKHART        CLOUDY    66  54  63 SE9       29.76F
GOSHEN         SUNNY     65  51  60 SE15G21   29.77F
SOUTH BEND       N/A    N/A N/A N/A MISG      29.76F

$$

INZ006>009-017-018-025>027-251700-
NORTHEAST INDIANA

CITY           SKY/WX    TMP DP  RH WIND       PRES   REMARKS
ANGOLA *+      MOSUNNY   63  54  72 SE9       29.81S
FORT WAYNE     CLOUDY    65  53  65 S9        29.80F
KENDALLVILLE + MOSUNNY   64  53  68 S12       29.81S

$$

INZ028-029-035-036-043>045-051>053-251700-
WEST CENTRAL INDIANA

CITY           SKY/WX    TMP DP  RH WIND       PRES   REMARKS
CRAWFORDSVL +  SUNNY     68  54  60 S7        29.76S
LAFAYETTE      SUNNY     69  55  60 S7        29.75S
TERRE HAUTE    SUNNY     70  55  59 SE7       29.75S

$$

INZ030>032-037>040-046>048-054>057-064-065-251700-
CENTRAL INDIANA

CITY           SKY/WX    TMP DP  RH WIND       PRES   REMARKS
COLUMBUS       MOSUNNY   66  54  63 SE5       29.79S
INDIANAPOLIS   MOSUNNY   67  56  67 SE7       29.77F
-EAGLE CREEK   MOSUNNY   68  54  60 E8        29.77S
KOKOMO +       SUNNY     68  55  63 SE10G16   29.78S
SHELBYVILLE    CLOUDY    69  52  54 SE9       29.78S

$$

INZ033-034-041-042-049-050-058-059-251700-
EAST CENTRAL INDIANA

CITY           SKY/WX    TMP DP  RH WIND       PRES   REMARKS
MUNCIE         CLOUDY    68  53  58 SE8       29.79F HAZE
RICHMOND +     SUNNY     64  52  63 SE10      29.81F

$$

INZ060-061-067>069-081>083-085>088-251700-
SOUTHWEST INDIANA

CITY           SKY/WX    TMP DP  RH WIND       PRES   REMARKS
EVANSVILLE     SUNNY     72  55  55 SW7       29.76F
HUNTINGBURG *+ SUNNY     70  57  63 VRB6      29.77S

$$

INZ062-063-066-070>080-084-089>092-251700-
SOUTH CENTRAL AND SOUTHEAST INDIANA

CITY           SKY/WX    TMP DP  RH WIND       PRES   REMARKS
BLOOMINGTON    SUNNY     71  55  56 S10       29.77S
MADISON *+     MOSUNNY   66  52  59 CALM      29.81S
SEYMOUR +      MOSUNNY   70  54  56 SE6       29.78F

$$




USA.gov is the U.S. government's official web portal to all federal, state and local government web resources and services.